Regional Weather Roundup
Issued by NWS Burlington, VT

Current Version | Previous Version | Text Only | Print | Product List | Glossary On
Versions: 1 2 3 4 5 6 7 8 9 10 11 12 13 14 15 16 17 18 19 20 21 22 23 24 25 26 27 28 29 30 31 32 33 34 35 36 37 38 39 40 41 42 43 44 45 46 47 48 49 50
000
ASUS41 KBTV 191530
RWRBTV
VERMONT REGIONAL WEATHER ROUNDUP
NATIONAL WEATHER SERVICE BURLINGTON VT
1000 AM EST FRI DEC 19 2014

NOTE: "FAIR" INDICATES FEW OR NO CLOUDS BELOW 12,000 FEET WITH NO
SIGNIFICANT WEATHER AND/OR OBSTRUCTIONS TO VISIBILITY.

* THESE REPORTS ARE NOT UNDER NWS QUALITY CONTROL AND/OR DO NOT
  REPORT WEATHER SUCH AS PRECIPITATION AND FOG.

VTZ001>019-191600-
_____VERMONT_____


CITY           SKY/WX    TMP DP  RH WIND       PRES   REMARKS
BURLINGTON     CLOUDY    26  18  71 N10       30.06R WCI  16
MONTPELIER     CLOUDY    23  18  81 NW8       30.01R
MORRISVILLE    CLOUDY    24  19  81 N12       30.03R WCI  13
ST. JOHNSBURY*   N/A     27  20  75 MISG      29.98R
LYNDONVILLE*   CLOUDY    24  19  79 W10       29.98R WCI  14
MIDDLEBURY*    CLOUDY    27  20  73 N7        30.03R
RUTLAND*       CLOUDY    27  19  74 NW8       30.00R
SPRINGFIELD    CLOUDY    30  20  66 W10G16    29.98R
HIGHGATE*      CLOUDY    24  18  80 CALM      30.09R
NEWPORT*       LGT SNOW  23  19  86 NW9       30.00S
BENNINGTON     CLOUDY    29  21  72 NW8       30.01R
SUTTON*          N/A     21 N/A N/A MISG        N/A
MT. MANSFIELD*   N/A     14 N/A N/A CALM        N/A

_____LAKE CHAMPLAIN_____


CITY           SKY/WX    TMP DP  RH WIND       PRES   REMARKS
BURTON ISLAND*   N/A     28  23  80 W20         N/A  WCI  15
COLCHESTER RF*   N/A     28  21  74 N15         N/A  WCI  17

$$

NYZ007-026>031-035-052-083-191600-
_____NORTHERN NEW YORK_____


CITY           SKY/WX    TMP DP  RH WIND       PRES   REMARKS
PLATTSBURGH    CLOUDY    25  17  72 N7        30.07R
SARANAC LAKE   CLOUDY    18 N/A N/A CALM      29.99R
MASSENA        CLOUDY    22  15  75 NW9       30.14R
OGDENSBURG*    FLURRIES  23  18  80 NW8       30.14R
POTSDAM*       FLURRIES  21  19  93 W8        30.12R
WATERTOWN      CLOUDY    25  16  68 N6        30.14S
FT DRUM        MIX PCPN  21  18  86 VRB3      30.11R
ALBANY         CLOUDY    31  20  63 NW16G23   30.06R
GLENS FALLS    CLOUDY    30  19  63 N8        30.05R

$$
NHZ002-005-011-191600-
_____NEW HAMPSHIRE_____


CITY           SKY/WX    TMP DP  RH WIND       PRES   REMARKS
LEBANON        CLOUDY    29  20  69 N10G21    29.98R WCI  20
KEENE          CLOUDY    30  19  64 N6G16     29.98R
MT WASHINGTON  PTSUNNY   18  12  79 N17         N/A  WCI   2
PLYMOUTH       CLOUDY    29  25  84 W14       29.96R WCI  19
WHITEFIELD     CLOUDY    26  20  77 NW3       29.97R

$$

_____REGIONAL QUEBEC LOCATIONS_____


CITY           SKY/WX    TMP DP  RH WIND       PRES   REMARKS
MONTREAL       PTSUNNY   23  14  68 W14       30.10R WCI  11
QUEBEC CITY    MOSUNNY   19  14  79 SW9       30.01R
SHERBROOKE     FLURRIES  21  19  93 W10       30.00R WCI  10

_____REGIONAL ONTARIO LOCATIONS_____


CITY           SKY/WX    TMP DP  RH WIND       PRES   REMARKS
OTTAWA         MOSUNNY   16  10  79 NW13      30.14R WCI   2

______KEY______
VSB  - VISIBILITY IN MILES
WCI  - WIND CHILL INDEX
HX   - HEAT INDEX
$$



USA.gov is the U.S. government's official web portal to all federal, state and local government web resources and services.